CZ-2D R/B, 28738

Orbit data source: Space-Track

CZ-2D R/B, 28738 is space debris in SSO originally from a launch on Tue, 05 Jul 2005 UTC launched from the Jiuquan Satellite Launch Center, China (JSC). Debris objects in space refer to the collection of defunct objects orbiting the Earth. Examples of debris include non-operational satellites, rocket bodies, and fragments generated from explosions, collisions, or faulty payload assembly.

Loading next visibility...
CZ-2D R/B details
Identifier
28738, 2005-024B
Orbit
SSO
Last TLE update6 hours ago
Origin
Flag of CNCASC (CN / PRC)
ManufacturerBWYIC
MissionSpacecraft
Bus & MotorCZ-2 STAGE 2, Unknown motor
Mass4,006 kg wet, 4,006 kg dry
Launch date (UTC)
2005-07-05 (19 years ago)
Launch vehicleUnknown
Launch site
Jiuquan Satellite Launch Center, China (JSC)
Object type
Payload
Rocket body
Debris
Shape & HBRCyl + 1 Sail, 8 m
Radar Cross Section25.456 m², Large (>1 m²)

Expand to show TLE details & history

TLE from 6 hours ago
0 CZ-2D R/B
1 28738U 05024B   24361.27115890  .00023992  00000-0  70810-3 0  9992
2 28738  97.3680 358.2467 0007532 160.4586 199.6947 15.34951130 72034
Epoch: 2024-12-26T06:30Z
Definitive object data (Epoch: 2024-12-26T06:30:28.128Z)
Latitude-0.0001°
Longitude165.37656°
Altitude469.029 km
Speed7.629 km/s
True Right ascension23h 52m 59s
True Declination0° 00' 00"
Sunlit
Object was in daylight at TLE epoch
Visualization TLE readout
Latitude-71.96419°
Longitude-171.11408°
Altitude490.775 km
Speed7.616 km/s
Apparent Right ascension00h 17m 59s
Apparent Declination-56° 54' 37"
Sunlit
Object is in daylight
Visualization observer readout
Local Sidereal Time11:48:17
Azimuth193.435° SSW
Elevation-72.331°
Doppler factor1
Orbital elements
Apogee altitude463.159 km
Perigee altitude452.861 km
Semi-major axis6,836.147 km
Eccentricity0.0007532
Inclination97.368°
RAAN358.2467°
Arg. of periapsis160.4586°
True anomaly199.66564°
Mean anomaly199.6947°
Eccentric anomaly199.68017°
Mean motion3.83995 °/min
BSTAR0.0007081
Orbital period93.75 mins
Loading maneuver chart data...
Loading historical data...
Loading historical data...
Loading historical data...
Loading historical data...
Loading historical data...
Loading historical data...
Loading historical data...

CZ-2D R/B Visibility forecast

Observer location: undefined°, undefined

Span
Click to sort rows by Start time (UTC) header in descending order
Start Az.
Max El. time (UTC)
Max El. Az.
Max El.
End time (UTC)
End Az.
5 mins2024-12-26 13:19:47.091Z348.336° N2024-12-26 13:21:47.091Z298.872° NW31.217°2024-12-26 13:24:47.091Z220.217° SW
5 mins2024-12-26 23:51:47.091Z145.97° SSE2024-12-26 23:53:47.091Z71.342° E39.461°2024-12-26 23:56:47.091Z358.275° N
|